This is the latest recevied weather packets stored in our database for station/object OE3WYC-1. If no packets are shown the sender has not sent any weather packets the latest 10 day(s).
| Time | Temp. | Humidity | Pressure | Rain* | Wind** | Luminosity | Snow |
|---|---|---|---|---|---|---|---|
| 1777987206 | 27.78° C | 31% | 1004.5 hPa | 0 mm | - | - | - |
| 1777985706 | 27.78° C | 30% | 1004.8 hPa | 0 mm | - | - | - |
| 1777985106 | 27.78° C | 30% | 1004.9 hPa | 0 mm | - | - | - |
| 1777983308 | 27.78° C | 30% | 1005.3 hPa | 0 mm | - | - | - |
| 1777982407 | 27.78° C | 31% | 1005.5 hPa | 0 mm | - | - | - |
| 1777980607 | 26.67° C | 38% | 1005.7 hPa | 0 mm | - | - | - |
| 1777977906 | 25.56° C | 43% | 1006.2 hPa | 0 mm | - | - | - |
| 1777974907 | 23.33° C | 48% | 1006.9 hPa | 0 mm | - | - | - |
| 1777972206 | 21.67° C | 53% | 1007.8 hPa | 0 mm | - | - | - |
| 1777971607 | 21.11° C | 54% | 1008.1 hPa | 0 mm | - | - | - |
| 1777971307 | 20.56° C | 54% | 1008.2 hPa | 0 mm | - | - | - |
| 1777966508 | 17.22° C | 63% | 1008.5 hPa | 0 mm | - | - | - |
| 1777965906 | 17.22° C | 63% | 1008.5 hPa | 0 mm | - | - | - |
| 1777964406 | 16.11° C | 64% | 1008.8 hPa | 0 mm | - | - | - |
| 1777962606 | 15.56° C | 66% | 1008.5 hPa | 0 mm | - | - | - |
| 1777962306 | 15° C | 66% | 1008.5 hPa | 0 mm | - | - | - |
| 1777960206 | 13.89° C | 69% | 1008.4 hPa | 0 mm | - | - | - |
| 1777959606 | 13.33° C | 69% | 1008.5 hPa | 0 mm | - | - | - |
| 1777959006 | 12.78° C | 69% | 1008.6 hPa | 0 mm | - | - | - |
| 1777958106 | 12.78° C | 70% | 1008.6 hPa | 0 mm | - | - | - |
| 1777957506 | 12.22° C | 70% | 1008.5 hPa | 0 mm | - | - | - |
| 1777957206 | 11.67° C | 69% | 1008.5 hPa | 0 mm | - | - | - |
| 1777955406 | 11.67° C | 67% | 1008.4 hPa | 0 mm | - | - | - |
| 1777953006 | 12.22° C | 67% | 1008.4 hPa | 0 mm | - | - | - |
| 1777950607 | 12.78° C | 65% | 1008.4 hPa | 0 mm | - | - | - |
* Rain latest hour (hover to see other rain measurements)
** Current wind speed in m/s (hover to see current wind gust speed)